User: anonymous   Login
Location: Unspecified
(0.0000°N, 0.0000°E)
Time: 06:53:57
(UTC+00:00)
Language:

TBA - TO BE ASSIGNED - Orbit

View from above orbital plane
View from above orbital plane
View from above satellite
View from above satellite

Ground track
Ground track

The orbit is defined by the following mean orbital elements,

1 68927U          26144.51258233 +.00000000 +00000-0 -49129-3 0 00000
2 68927  51.8764 181.5941 0002389 136.0910 224.0267 15.36171573    08
Epoch (UTC): 24 May 2026 12:18:07
Eccentricity: 0.0002389
inclination: 51.8764°
perigee height: 456 km
apogee height: 459 km
right ascension of ascending node: 181.5941°
argument of perigee: 136.0910°
revolutions per day: 15.36171573
mean anomaly at epoch: 224.0267°

The dashed part of the orbit path shows where the satellite is in the earth's shadow,  

DLR